Skip Page Navigation
NASA JPL Caltech
NASA Logo - Jet Propulsion Laboratory + View the NASA Portal
+ Center for Near-Earth Object Studies
JPL Home Earth Solar System Stars & Galaxies Technology
JPL Solar System Dynamics
BODIES ORBITS EPHEMERIDES TOOLS PHYSICAL DATA DISCOVERY FAQ SITE MAP
IMPORTANT: The SSD Announcement email list is now available. Major changes are coming in the near future, including possible hostname and/or URL changes. To be notified of such changes, subscribe to this email list.

Please visit this page for more details.


JPL Small-Body Database Browser
Search: [ help ]  
245233 (2004 XF126)
Classification: Main-belt Asteroid          SPK-ID: 2245233
Ephemeris | Orbit Diagram | Orbital Elements | Mission Design | Physical Parameters | Discovery Circumstances | Close-Approach Data ]

[ show orbit diagram ]
Orbital Elements at Epoch 2459000.5 (2020-May-31.0) TDB
Reference: JPL 17 (heliocentric ecliptic J2000)
 Element Value Uncertainty (1-sigma)   Units 
e .282978326775037 6.1641e-08  
a 2.678527062697904 2.0406e-08 au
q 1.920561956273996 1.6833e-07 au
i 13.46100161755113 5.1929e-06 deg
node 108.0766132577453 2.8543e-05 deg
peri 270.5234607158063 2.9798e-05 deg
M 219.175642111475 8.0607e-06 deg
tp 2459626.850983605879
(2022-Feb-16.35098361)
3.8502e-05 TDB
period 1601.188583274841
4.38
1.8298e-05
5.01e-08
d
yr
n .224832979550546 2.5693e-09 deg/d
Q 3.436492169121811 2.6181e-08 au
  Orbit Determination Parameters
   # obs. used (total)      391  
   data-arc span      6646 days (18.20 yr)  
   first obs. used      2001-01-21  
   last obs. used      2019-04-03  
   planetary ephem.      DE431  
   SB-pert. ephem.      SB431-N16  
   condition code      0  
   norm. resid. RMS      .52708  
   source      ORB  
   producer      Otto Matic  
   solution date      2019-Jul-13 19:30:37  

Additional Information
 Earth MOID = .978075 au 
 Jupiter MOID = 2.22293 au 
 T_jup = 3.281 
[ show covariance matrix ]

Ephemeris | Orbit Diagram | Orbital Elements | Mission Design | Physical Parameters | Discovery Circumstances | Close-Approach Data ]

Physical Parameter Table
Parameter Symbol Value Units Sigma Reference Notes
absolute magnitude H 15.9   n/a MPO437142  

245233 (2004 XF126)          Discovered 2004-Dec-12 by LINEAR at Socorro
Reference: 20100726/Numbers.arcLast Updated: 2010-07-28

[ show close-approach data ]
Alternate Designations
 2004 XF126 = 2001 BY36 
Ephemeris | Orbit Diagram | Orbital Elements | Mission Design | Physical Parameters | Discovery Circumstances | Close-Approach Data ]
ABOUT SSD CREDITS/AWARDS PRIVACY/COPYRIGHT GLOSSARY LINKS
FirstGov 2020-Apr-09 09:28 UT
(server date/time)  
NASA Home Page
Site Manager:   Ryan S. Park
Webmaster  Alan B. Chamberlin